Weather History for Trenton, NJ

Change the Weather History Date:

Tuesday, June 10, 2014

  Actual Average Record
Temperature  
Mean Temperature 75 °F 69 °F  
Max Temperature 83 °F 79 °F 96 °F (2008)
Min Temperature 66 °F 59 °F 44 °F (1988)
Degree Days  
Heating Degree Days 0 1  
Month to date heating degree days 3 16  
Since 1 June heating degree days 3 16  
Since 1 July heating degree days 5477 5152  
Cooling Degree Days 10 5  
Month to date cooling degree days 45 43  
Year to date cooling degree days 89 100  
Since 1 June cooling degree days 45 43  
Growing Degree Days 24 (Base 50)    
Moisture  
Dew Point 67 °F    
Average Humidity 84    
Maximum Humidity 100    
Minimum Humidity 67    
Precipitation  
Precipitation 0.00 in 0.15 in 2.59 in (1944)
Month to date precipitation 0.76 1.64  
Year to date precipitation 21.09 19.16  
Sea Level Pressure  
Sea Level Pressure 29.91 in    
Wind  
Wind Speed 6 mph (ENE)    
Max Wind Speed 12 mph    
Max Gust Speed 15 mph    
Visibility 6 miles    
Events Fog    
T = Trace of Precipitation, MM = Missing Value Source: NWS Daily Summary

Daily Weather History Graph

Daily Weather History Graph

Search for Another Location

Airport:

Trip Planner

Search our weather history database for the weather conditions in past years. The results will help you decide how hot, cold, wet, or windy it might be!

Date:

Astronomy

Jun. 10, 2014 Rise Set
Actual Time 5:29 AM EDT 8:28 PM EDT
Civil Twilight 4:56 AM EDT 9:01 PM EDT
Nautical Twilight 4:14 AM EDT 9:43 PM EDT
Astronomical Twilight 3:26 AM EDT 10:31 PM EDT
Moon 5:50 PM EDT (6/10) 3:33 AM EDT (6/10)
Length of Visible Light 16h 05m
Length of Day
14h 59m
Waxing Gibbous, 92% of the Moon is Illuminated
Jun 10
Waxing Gibbous
Jun 13
Full
Jun 19
Last Quarter
Jun 27
New
Jul 5
First Quarter

Hourly Weather History & Observations

Time (EDT) Temp. Heat Index Dew Point Humidity Pressure Visibility Wind Dir Wind Speed Gust Speed Precip Events Conditions
12:53 AM 68.0 °F - 66.0 °F 93% 29.91 in 4.0 mi East 4.6 mph - N/A   Overcast
1:53 AM 66.9 °F - 66.0 °F 97% 29.90 in 3.0 mi ESE 3.5 mph - N/A   Overcast
2:53 AM 68.0 °F - 66.0 °F 93% 29.89 in 4.0 mi NNE 4.6 mph - N/A   Overcast
3:21 AM 66.9 °F - 64.9 °F 93% 29.91 in 2.5 mi NE 4.6 mph - N/A   Overcast
3:53 AM 66.9 °F - 64.9 °F 93% 29.90 in 2.5 mi ENE 4.6 mph - N/A   Overcast
4:18 AM 66.9 °F - 64.9 °F 93% 29.91 in 1.8 mi ENE 3.5 mph - N/A   Overcast
4:53 AM 66.0 °F - 64.9 °F 96% 29.89 in 0.8 mi ENE 4.6 mph - N/A   Mist
5:53 AM 66.0 °F - 64.9 °F 96% 29.91 in 0.2 mi NNE 4.6 mph - N/A Fog Fog
6:44 AM 66.0 °F - 64.9 °F 96% 29.92 in 1.0 mi NE 6.9 mph - N/A   Overcast
6:53 AM 66.0 °F - 64.0 °F 93% 29.91 in 1.0 mi NE 5.8 mph - N/A   Overcast
7:53 AM 66.0 °F - 64.9 °F 96% 29.92 in 1.0 mi ENE 5.8 mph - N/A   Overcast
8:53 AM 66.9 °F - 66.0 °F 97% 29.92 in 1.2 mi East 4.6 mph - N/A   Overcast
9:53 AM 68.0 °F - 66.0 °F 93% 29.90 in 1.8 mi East 6.9 mph - N/A   Overcast
10:00 AM 68.0 °F - 66.0 °F 93% 29.92 in 2.0 mi East 6.9 mph - N/A   Overcast
10:44 AM 71.1 °F - 68.0 °F 90% 29.92 in 5.0 mi ESE 5.8 mph - N/A   Overcast
11:53 AM 73.0 °F - 69.1 °F 87% 29.91 in 5.0 mi NE 4.6 mph - N/A   Overcast
12:39 PM 77.0 °F - 70.0 °F 79% 29.93 in 7.0 mi SE 4.6 mph - N/A   Overcast
12:53 PM 77.0 °F - 70.0 °F 79% 29.91 in 7.0 mi Variable 3.5 mph - N/A   Overcast
1:53 PM 78.1 °F - 69.1 °F 74% 29.89 in 9.0 mi NNE 5.8 mph - N/A   Unknown
2:25 PM 79.0 °F - 69.1 °F 72% 29.90 in 9.0 mi Calm Calm - N/A   Overcast
2:53 PM 80.1 °F 82.9 °F 69.1 °F 69% 29.88 in 10.0 mi North 5.8 mph - N/A   Overcast
3:53 PM 81.0 °F 84.1 °F 69.1 °F 67% 29.88 in 10.0 mi NE 3.5 mph - N/A   Overcast
4:24 PM 82.0 °F 85.9 °F 70.0 °F 67% 29.90 in 10.0 mi NNE 6.9 mph - N/A   Scattered Clouds
4:49 PM 80.6 °F 83.2 °F 68.0 °F 65% 29.90 in 10.0 mi ENE 6.9 mph - N/A   Mostly Cloudy
5:00 PM 80.1 °F 82.9 °F 69.1 °F 69% 29.90 in 10.0 mi ENE 9.2 mph - N/A   Overcast
5:53 PM 79.0 °F - 69.1 °F 72% 29.89 in 10.0 mi ENE 10.4 mph - N/A   Mostly Cloudy
6:53 PM 77.0 °F - 66.9 °F 71% 29.90 in 10.0 mi East 6.9 mph - N/A   Overcast
7:53 PM 75.9 °F - 66.9 °F 74% 29.91 in 10.0 mi ENE 10.4 mph - N/A   Overcast
8:53 PM 73.0 °F - 66.9 °F 81% 29.92 in 10.0 mi ENE 8.1 mph - N/A   Mostly Cloudy
9:53 PM 72.0 °F - 66.9 °F 84% 29.94 in 9.0 mi ENE 5.8 mph - N/A   Clear
10:48 PM 69.8 °F - 66.2 °F 88% 29.97 in 9.0 mi East 3.5 mph - N/A   Scattered Clouds
11:53 PM 69.1 °F - 66.9 °F 93% 29.95 in 8.0 mi ENE 6.9 mph - N/A   Clear